EW0362 Weather Reports


time (UTC)temp
C
wind
direction
speed
KPH
gust
KPH
rain 1hr
cm
rain 24hr
cm
rain mn
cm
humidity
%
barometer
mb
20260902030203 17 73 0.0 0.0 0.00 0.74 0.74 97 1019.1
20260902025704 17 73 0.0 0.0 0.00 0.74 0.74 97 1019.1
20260902025203 17 73 0.0 0.0 0.00 0.74 0.74 97 1019.0
20260902024703 17 73 0.0 0.0 0.00 0.74 0.74 97 1019.1
20260902023703 17 73 0.0 0.0 0.00 0.74 0.74 97 1019.1
20260902023204 17 73 0.0 0.0 0.00 0.74 0.74 97 1019.1
20260902022704 17 73 0.0 0.0 0.00 0.74 0.74 97 1019.2
20260902021203 17 73 0.0 0.0 0.00 0.74 0.74 97 1019.2
20260902012703 17 74 0.0 0.0 0.00 0.74 0.74 97 1018.9
20260902012203 17 74 0.0 0.0 0.00 0.74 0.74 97 1019.0
20260902011705 17 74 0.0 0.0 0.00 0.74 0.74 97 1019.0
20260902005705 17 74 0.0 0.0 0.00 0.74 0.74 97 1019.0
20260902004704 17 74 0.0 0.0 0.00 0.74 0.74 97 1018.8
20260902002705 17 74 0.0 0.0 0.00 0.74 0.74 97 1018.7
20260902001705 17 74 0.0 0.0 0.00 0.74 0.74 97 1018.5
20260902000705 18 74 0.0 0.0 0.00 0.74 0.74 97 1018.5
20260901234205 18 74 0.0 0.0 0.00 0.74 0.74 97 1018.3
20260901233204 18 74 0.0 0.0 0.00 0.74 0.74 97 1018.4
20260901232704 18 74 0.0 0.0 0.00 0.74 0.74 97 1018.5
20260901230704 18 74 0.0 0.0 0.00 0.74 0.74 97 1018.4
20260901230204 18 74 0.0 0.0 0.00 0.74 0.74 97 1018.3
20260901225205 18 74 0.0 0.0 0.00 0.74 0.74 97 1018.4
20260901224704 18 74 0.0 0.0 0.00 0.74 0.74 97 1018.4
20260901221705 18 73 0.0 0.0 0.03 0.74 0.74 96 1018.2
20260901220205 18 73 0.0 0.0 0.03 0.74 0.74 96 1018.2
20260901214205 18 74 0.0 0.0 0.03 0.74 0.74 96 1018.0
20260901212204 18 53 0.0 0.0 0.00 0.71 0.71 96 1017.9
20260901210204 18 304 0.0 0.0 0.00 0.71 0.71 97 1017.6
20260901205204 18 81 0.0 0.0 0.00 0.71 0.71 96 1017.4
20260901204705 18 81 0.0 0.0 0.00 0.71 0.71 97 1017.5
20260901203704 18 81 0.0 0.0 0.00 0.71 0.71 96 1017.5
20260901203205 18 81 0.0 0.0 0.00 0.71 0.71 96 1017.4
20260901201704 18 81 0.0 0.0 0.00 0.71 0.71 96 1017.3
20260901201204 18 81 0.0 0.0 0.00 0.71 0.71 97 1017.3
20260901200705 18 81 0.0 0.0 0.00 0.71 0.71 97 1017.4
20260901195204 19 61 0.0 0.0 0.00 0.71 0.71 97 1017.4
20260901194704 19 42 0.0 0.0 0.00 0.71 0.71 96 1017.4
20260901193204 19 62 0.0 0.0 0.00 0.71 0.71 97 1017.4
20260901192704 19 63 0.0 0.0 0.00 0.71 0.71 97 1017.4
20260901192205 19 63 0.0 0.0 0.00 0.71 0.71 96 1017.4
20260901191704 19 69 0.0 0.0 0.00 0.71 0.71 97 1017.5
20260901190705 19 84 0.0 0.0 0.00 0.71 0.71 97 1017.5
20260901190204 18 94 0.0 0.0 0.00 0.71 0.71 97 1017.5
20260901183704 18 87 0.0 0.0 0.00 0.71 0.71 97 1017.6
20260901182205 18 86 0.0 0.0 0.00 0.71 0.71 97 1017.6
20260901181704 18 72 0.0 0.0 0.00 0.71 0.71 97 1017.5
20260901181204 18 72 0.0 0.0 0.00 0.71 0.71 97 1017.5
20260901175704 18 76 0.0 0.0 0.03 0.71 0.71 97 1017.3
20260901175205 18 76 0.0 0.0 0.03 0.71 0.71 97 1017.2
20260901174704 18 80 0.0 0.0 0.03 0.71 0.71 97 1017.1
20260901173704 18 32 0.0 0.0 0.03 0.71 0.71 97 1017.0
20260901171705 18 59 0.0 0.0 0.03 0.71 0.71 97 1017.1
20260901170704 17 61 0.0 0.0 0.03 0.71 0.71 96 1017.3
20260901170204 17 34 0.0 0.0 0.03 0.71 0.71 96 1017.4
20260901164704 17 55 0.0 0.0 0.00 0.69 0.69 96 1017.3
20260901164204 17 70 0.0 0.0 0.00 0.69 0.69 96 1017.4
20260901163204 17 67 0.0 0.0 0.00 0.69 0.69 96 1017.4
20260901161204 17 83 0.0 0.0 0.00 0.69 0.69 96 1017.7
20260901154704 17 96 0.0 0.0 0.00 0.69 0.69 96 1017.4
20260901153204 17 99 0.0 0.0 0.00 0.69 0.69 96 1017.3
20260901152704 17 99 0.0 0.0 0.00 0.69 0.69 96 1017.2
20260901152204 17 99 0.0 0.0 0.00 0.69 0.69 96 1017.4
20260901151204 17 48 0.0 0.0 0.03 0.69 0.69 96 1017.5
20260901150204 17 49 0.0 0.0 0.03 0.69 0.69 96 1017.5
20260901143705 17 36 0.0 0.0 0.05 0.69 0.69 96 1017.3
20260901142705 17 36 0.0 0.0 0.08 0.69 0.69 96 1017.3
20260901142205 17 36 0.0 0.0 0.08 0.69 0.69 96 1017.4
20260901140204 17 36 0.0 0.0 0.15 0.66 0.66 95 1017.1
20260901135204 17 35 0.0 0.0 0.23 0.66 0.66 95 1017.1
20260901134204 17 115 0.0 0.0 0.33 0.64 0.64 95 1017.3
20260901133704 17 115 0.0 0.0 0.38 0.64 0.64 95 1017.4
20260901133204 17 115 0.0 0.0 0.43 0.64 0.64 95 1017.5
20260901132704 17 115 0.0 0.0 0.43 0.61 0.61 95 1017.6
20260901130704 17 114 0.0 0.0 0.48 0.51 0.51 95 1017.8
20260901130204 17 131 0.0 0.0 0.51 0.51 0.51 96 1017.8
20260901125705 17 124 0.0 0.0 0.48 0.48 0.48 95 1017.8
20260901125204 17 124 0.0 1.6 0.43 0.43 0.43 95 1017.8
20260901124704 18 271 0.0 0.0 0.38 0.38 0.38 95 1017.8
20260901123704 18 267 0.0 0.0 0.25 0.25 0.25 95 1017.9
20260901123204 18 272 0.0 0.0 0.20 0.20 0.20 95 1017.9
20260901122204 18 0 0.0 1.6 0.10 0.10 0.10 95 1018.0
20260901115704 18 5 0.0 0.0 0.00 0.00 0.00 95 1017.8
20260901114704 18 5 0.0 0.0 0.00 0.00 0.00 95 1017.7
20260901113705 18 5 0.0 0.0 0.00 0.00 0.00 95 1017.6
20260901113204 18 5 0.0 0.0 0.00 0.00 0.00 95 1017.6
20260901112204 18 5 0.0 0.0 0.00 0.00 0.00 94 1017.5
20260901111704 18 5 0.0 0.0 0.00 0.00 0.00 94 1017.5
20260901111204 18 5 0.0 0.0 0.00 0.00 0.00 94 1017.5
20260901110703 18 5 0.0 0.0 0.00 0.00 0.00 94 1017.5
20260901110204 18 5 0.0 0.0 0.00 0.00 0.00 94 1017.5
20260901105705 18 5 0.0 0.0 0.00 0.00 0.00 94 1017.3
20260901105204 18 5 0.0 0.0 0.00 0.00 0.00 94 1017.3
20260901103704 18 5 0.0 0.0 0.00 0.00 0.00 94 1017.1
20260901103204 18 5 0.0 0.0 0.00 0.00 0.00 94 1017.1
20260901102704 18 5 0.0 0.0 0.00 0.00 0.00 94 1017.0
20260901101704 17 5 0.0 0.0 0.00 0.00 0.00 94 1016.9
20260901101204 17 5 0.0 0.0 0.00 0.00 0.00 94 1016.8
20260901100704 17 5 0.0 0.0 0.00 0.00 0.00 94 1016.7
20260901095704 17 5 0.0 0.0 0.00 0.00 0.00 94 1016.6
20260901095204 17 5 0.0 0.0 0.00 0.00 0.00 94 1016.6
20260901094704 17 5 0.0 0.0 0.00 0.00 0.00 94 1016.6
20260901093704 17 5 0.0 0.0 0.00 0.00 0.00 94 1016.5
20260901092704 17 5 0.0 0.0 0.00 0.00 0.00 94 1016.5
20260901092204 17 5 0.0 0.0 0.00 0.00 0.00 94 1016.7
20260901091204 17 5 0.0 0.0 0.00 0.00 0.00 94 1016.6
20260901090704 17 5 0.0 0.0 0.00 0.00 0.00 94 1016.6
20260901083204 17 5 0.0 0.0 0.00 0.00 0.00 94 1016.6
20260901081704 17 5 0.0 0.0 0.00 0.00 0.00 94 1016.7
20260901080704 17 5 0.0 0.0 0.00 0.00 0.00 94 1016.6
20260901073704 17 5 0.0 0.0 0.00 0.00 0.00 93 1016.9
20260901073204 17 5 0.0 0.0 0.00 0.00 0.00 93 1017.0
20260901070704 17 5 0.0 0.0 0.00 0.00 0.00 93 1017.0
20260901070205 17 5 0.0 0.0 0.00 0.00 0.00 93 1017.1
20260901065204 17 5 0.0 0.0 0.00 0.00 0.00 93 1017.2
20260901064704 17 5 0.0 0.0 0.00 0.00 0.00 93 1017.2
20260901064204 17 5 0.0 0.0 0.00 0.00 0.00 93 1017.3
20260901063204 17 5 0.0 0.0 0.00 0.00 0.00 93 1017.2
20260901062704 17 5 0.0 0.0 0.00 0.00 0.00 93 1017.2
20260901062204 17 5 0.0 0.0 0.00 0.00 0.00 93 1017.3
20260901061704 17 5 0.0 0.0 0.00 0.00 0.00 93 1017.2
20260901055703 17 5 0.0 0.0 0.00 0.00 0.00 93 1017.3
20260901053704 17 5 0.0 0.0 0.00 0.00 0.00 92 1017.3
20260901053204 17 5 0.0 0.0 0.00 0.00 0.00 92 1017.4
20260901052703 17 5 0.0 0.0 0.00 0.00 0.00 92 1017.4
20260901052205 17 5 0.0 0.0 0.00 0.00 0.00 91 1017.4
20260901051204 17 5 0.0 0.0 0.00 0.00 0.00 91 1017.4
20260901050204 17 5 0.0 0.0 0.00 0.00 0.00 91 1017.3
20260901045204 17 5 0.0 0.0 0.00 0.00 0.00 90 1017.4
20260901044704 17 5 0.0 0.0 0.00 0.00 0.00 90 1017.5
20260901044203 17 5 0.0 0.0 0.00 0.00 0.00 90 1017.5
20260901042704 17 5 0.0 0.0 0.00 0.00 0.00 90 1017.3
20260901041704 17 5 0.0 0.0 0.00 0.00 0.00 90 1017.4
20260901040204 18 5 0.0 0.0 0.00 0.00 0.00 90 1017.3
20260901034703 18 5 0.0 0.0 0.00 0.00 0.00 90 1017.4
20260901034204 18 5 0.0 0.0 0.00 0.00 0.00 90 1017.4
20260901033703 18 5 0.0 0.0 0.00 0.00 0.00 90 1017.4
20260901033203 18 5 0.0 0.0 0.00 0.00 0.00 90 1017.4
20260901032704 18 5 0.0 0.0 0.00 0.00 0.00 90 1017.4
20260901031703 18 5 0.0 0.0 0.00 0.00 0.00 90 1017.4